Location: Newark
(9.5333°N, 13.6833°W)
Time: 20:05:52
(UTC+00:00)

Hubble Space Telescope - Visible Passes

Search period start: 22 February 2020 00:00
Search period end: 03 March 2020 00:00
Orbit: 536 x 540 km, 28.5° (Epoch: 22 February)

Date Brightness Start Highest point End Pass type
(mag) Time Alt. Az. Time Alt. Az. Time Alt. Az.
28 Feb 3.5 20:51:40 10° NNW 20:51:50 11° NNW 20:51:50 11° NNW visible
29 Feb 3.0 20:40:39 10° NNW 20:42:03 16° N 20:42:03 16° N visible
01 Mar 2.3 20:29:44 10° NW 20:32:21 25° N 20:32:21 25° N visible
02 Mar 1.5 20:18:53 10° NW 20:22:41 35° NNE 20:22:43 35° NNE visible
